Tracking 19219 objects as of 20-Jul-2018
HD Live streaming from Space Station
objects crossing your sky now

SBS 6

Track SBS 6 now!
SBS 6 is classified as:


NORAD ID: 20872
Int'l Code: 1990-091A
Perigee: 36,133.3 km
Apogee: 36,180.1 km
Inclination: 8.4 °
Period: 1,454.7 minutes
Semi major axis: 42527 km
RCS: 24.6021 m2 (large)
Launch date: October 12, 1990
Source: United States (US)
Launch site: FRENCH GUIANA (FRGUI)
aabbcc
Your satellite tracking list
Your tracking list is empty




NASA's NSSDC Master Catalog

Two Line Element Set (TLE):
1 20872U 90091A   18201.05189184 -.00000102  00000-0  00000+0 0  9999
2 20872   8.4074  47.3058 0005498  59.3581 130.0476  0.98990903 89632
Source of the keplerian elements: AFSPC